[[{"header":{"parameterUnit":"m.s-1","parameterCategory":1,"la1":30.2991,"la2":30.254,"lo1":-89.0895,"lo2":-89.0444,"dy":0.0017,"dx":0.0017,"nx":28,"ny":28,"refTime":"2023-08-28T09:00:00:Z","depth":0,"parameterNumber":2,"parameterNumberName":"U-component_of_WINDS"},"data":[0,0,0,0,0,0,0,0,0,0,0,0,0,0,0,0,0,0,0,0,0,0,0,0,0,0,0,0,0,0,0,0,0,0,0,0,0,0,0,0,0,0,0,0,0,0,0,0,0,0,0,0,0,0,0,0,0,0,-0.668,-0.6679,0,-0.6608,-0.6607,-0.6606,-0.6562,-0.6561,-0.6561,-0.6561,-0.6483,-0.6482,-0.648,0,0,0,0,0,0,0,0,0,0,0,0,0,-0.6774,-0.6772,-0.668,-0.6679,-0.6678,-0.6608,-0.6607,-0.6606,-0.6562,-0.6561,-0.6561,-0.6561,-0.6484,-0.6482,-0.648,0,0,0,0,0,0,0,0,0,0,0,0,0,-0.672,-0.6772,-0.668,-0.6648,-0.6644,-0.6608,-0.6607,-0.6606,-0.6562,-0.6561,-0.6561,-0.6561,-0.6485,-0.6482,-0.6479,-0.6469,0,0,-0.6471,-0.647,0,0,0,0,0,0,0,0,-0.6723,-0.6717,-0.6653,-0.665,-0.6646,-0.6593,-0.6611,-0.656,-0.6562,-0.6593,-0.6561,-0.656,-0.652,-0.6514,-0.6501,-0.6465,-0.6462,-0.6471,-0.6469,-0.6468,-0.6467,0,0,0,0,0,0,0,-0.6727,-0.672,-0.6651,-0.6652,-0.6648,-0.6635,-0.6627,-0.6601,-0.6559,-0.659,-0.6587,-0.6579,-0.6518,-0.6504,-0.6499,-0.6461,-0.6471,-0.6468,-0.6466,-0.6465,-0.6409,-0.6409,0,0,0,0,0,0,-0.6737,-0.6723,-0.6653,-0.6649,-0.6685,-0.6633,-0.6624,-0.661,-0.6559,-0.6551,-0.6579,-0.6577,-0.6509,-0.6503,-0.6496,-0.6479,-0.6468,-0.6465,-0.6463,-0.6409,-0.6409,-0.6409,0,0,0,0,0,0,-0.6739,-0.6731,-0.6656,-0.6685,-0.6675,-0.6632,-0.6617,-0.6609,-0.6596,-0.6551,-0.6543,-0.6574,-0.6509,-0.65,-0.6476,-0.6476,-0.6464,-0.6461,-0.6409,-0.6409,-0.6409,-0.6446,0,0,0,0,0,0,-0.6742,-0.6732,-0.6729,-0.6685,-0.6673,-0.6639,-0.6617,-0.6608,-0.6591,-0.6588,-0.6544,-0.6536,-0.6508,-0.648,-0.6473,-0.6472,-0.6459,-0.6408,-0.6409,-0.6409,-0.6444,-0.6447,-0.645,0,0,0,0,0,-0.6745,-0.6742,-0.6729,-0.6721,-0.6669,-0.6639,-0.6632,-0.66,-0.6592,-0.6587,-0.6558,-0.6537,-0.6477,-0.6478,-0.6469,-0.6468,-0.6408,-0.6409,-0.6409,-0.6443,-0.6446,-0.6449,0,0,0,0,0,0,-0.6786,-0.6736,-0.6721,-0.6704,-0.6676,-0.6631,-0.6625,-0.6606,-0.6579,-0.6577,-0.6537,-0.6528,-0.6506,-0.6484,-0.6486,-0.6453,-0.644,-0.6439,-0.6469,-0.6472,-0.6474,-0.648,-0.6457,0,0,0,0,0,-0.6793,-0.6774,-0.6731,-0.672,-0.6707,-0.6668,-0.6654,-0.6632,-0.6601,-0.6589,-0.6558,-0.6528,-0.6501,-0.6485,-0.6459,-0.644,-0.6429,-0.6435,-0.6437,-0.644,-0.6439,-0.6425,-0.6426,-0.641,-0.641,-0.641,0,0,-0.6808,-0.6778,-0.6768,-0.6727,-0.6703,-0.6682,-0.6659,-0.6639,-0.6622,-0.6585,-0.656,-0.6536,-0.65,-0.6477,-0.6466,-0.6458,-0.6441,-0.644,-0.6442,-0.644,-0.6425,-0.6427,-0.6428,-0.6411,-0.6411,-0.6411,0,0,-0.6823,-0.68,-0.6787,-0.6763,-0.6727,-0.6701,-0.6698,-0.6656,-0.6639,-0.6613,-0.6584,-0.6563,-0.652,-0.6494,-0.6475,-0.6478,-0.6457,-0.647,-0.6484,-0.6471,-0.6472,-0.6473,-0.6473,-0.6473,-0.647,-0.647,-0.647,0,-0.6845,-0.6815,-0.6782,-0.6763,-0.6745,-0.6711,-0.6697,-0.6674,-0.6631,-0.6618,-0.661,-0.6554,-0.6526,-0.6497,-0.6497,-0.6484,-0.6477,-0.6475,-0.6475,-0.6476,-0.6476,-0.6475,-0.6475,-0.6472,-0.6471,-0.6471,-0.6471,0,-0.6843,-0.6822,-0.6816,-0.6775,-0.6756,-0.674,-0.6703,-0.6687,-0.6666,-0.664,-0.6613,-0.6579,-0.6544,-0.6535,-0.6515,-0.6501,-0.6497,-0.6483,-0.6469,-0.648,-0.6478,-0.6478,-0.6474,-0.6474,-0.6473,-0.6473,0,0,-0.6884,-0.6824,-0.6822,-0.6803,-0.6759,-0.6741,-0.6722,-0.6689,-0.6675,-0.6645,-0.6627,-0.6589,-0.6575,-0.6554,-0.6529,-0.6518,-0.652,-0.6504,-0.6502,-0.6507,-0.6501,-0.6512,-0.6512,-0.6506,-0.6505,-0.6505,-0.6504,0,-0.6892,-0.6857,-0.6826,-0.6802,-0.6781,-0.6747,-0.6729,-0.67,-0.6675,-0.6651,-0.6623,-0.6596,-0.658,-0.6567,-0.6554,-0.6523,-0.6518,-0.6522,-0.6486,-0.6485,-0.6496,-0.6512,-0.6524,-0.6524,-0.6503,-0.6503,-0.6503,0,-0.6898,-0.687,-0.6844,-0.6801,-0.679,-0.6776,-0.6741,-0.6721,-0.6685,-0.6667,-0.6642,-0.6616,-0.6592,-0.658,-0.6544,-0.6547,-0.653,-0.6512,-0.6511,-0.6507,-0.6495,-0.6506,-0.6524,-0.6524,-0.6502,-0.6502,-0.6502,0,-0.6928,-0.6884,-0.6863,-0.6847,-0.6796,-0.6786,-0.6764,-0.6728,-0.671,-0.6679,-0.6666,-0.6632,-0.6614,-0.6587,-0.6552,-0.6547,-0.6519,-0.6505,-0.6501,-0.6502,-0.6497,-0.6498,-0.6512,-0.6487,-0.6487,-0.6487,-0.6487,0,-0.6941,-0.6926,-0.6876,-0.6862,-0.6843,-0.6807,-0.6788,-0.6763,-0.6731,-0.671,-0.6678,-0.6659,-0.6614,-0.6589,-0.6561,-0.6534,-0.6526,-0.6509,-0.6502,-0.6512,-0.6514,-0.65,-0.6499,-0.6487,-0.6487,-0.6487,-0.6487,0,-0.6972,-0.6938,-0.6912,-0.6866,-0.6854,-0.6842,-0.6801,-0.6785,-0.6758,-0.6732,-0.6723,-0.6679,-0.6648,-0.661,-0.6566,-0.6547,-0.6522,-0.6511,-0.6535,-0.653,-0.6529,-0.6529,-0.6533,-0.6531,-0.651,-0.651,-0.651,0,-0.6982,-0.697,-0.6922,-0.6907,-0.6886,-0.6861,-0.6842,-0.6804,-0.6785,-0.6742,-0.6731,-0.6697,-0.6668,-0.6618,-0.6581,-0.6546,-0.6534,-0.6537,-0.6528,-0.6538,-0.6532,-0.6533,-0.6531,-0.654,-0.654,-0.6541,-0.6541,0,-0.7003,-0.6986,-0.6961,-0.6928,-0.6906,-0.6878,-0.6849,-0.6838,-0.6793,-0.6773,-0.674,-0.6718,-0.6672,-0.6638,-0.6598,-0.6573,-0.6549,-0.6544,-0.6541,-0.6551,-0.6565,-0.6556,-0.6541,-0.6544,-0.6544,-0.6544,-0.6544,-0.6543,-0.7023,-0.701,-0.6974,-0.6945,-0.6919,-0.6892,-0.6875,-0.6845,-0.6818,-0.6779,-0.6757,-0.6725,-0.6687,-0.6631,-0.6606,-0.6579,-0.657,-0.6567,-0.6566,-0.6565,-0.6568,-0.657,-0.6571,-0.6571,-0.6571,-0.6571,-0.6571,0,-0.7041,-0.7016,-0.699,-0.6951,-0.6927,-0.6908,-0.6874,-0.6855,-0.6828,-0.6795,-0.6766,-0.6728,-0.6694,-0.6654,-0.6616,-0.6602,-0.659,-0.6593,-0.6594,-0.6588,-0.6578,-0.6584,-0.6604,-0.6604,-0.6604,-0.6604,-0.6604,-0.6604,-0.7048,-0.7024,-0.7003,-0.6965,-0.6939,-0.6908,-0.689,-0.6864,-0.6837,-0.6796,-0.6768,-0.6742,-0.6705,-0.6665,-0.6632,-0.6621,-0.6608,-0.6615,-0.66,-0.6591,-0.6589,-0.6586,-0.6591,-0.6612,-0.6612,-0.6612,-0.6612,-0.6612]},{"header":{"parameterUnit":"m.s-1","parameterCategory":1,"la1":30.2991,"la2":30.254,"lo1":-89.0895,"lo2":-89.0444,"dy":0.0017,"dx":0.0017,"nx":28,"ny":28,"refTime":"2023-08-28T09:00:00:Z","depth":0,"parameterNumber":3,"parameterNumberName":"V-component_of_WINDS"},"data":[0,0,0,0,0,0,0,0,0,0,0,0,0,0,0,0,0,0,0,0,0,0,0,0,0,0,0,0,0,0,0,0,0,0,0,0,0,0,0,0,0,0,0,0,0,0,0,0,0,0,0,0,0,0,0,0,0,0,-1.2743,-1.2741,0,-1.2546,-1.2544,-1.2541,-1.2456,-1.2456,-1.2457,-1.2457,-1.2247,-1.2241,-1.2235,0,0,0,0,0,0,0,0,0,0,0,0,0,-1.3039,-1.3034,-1.2743,-1.2741,-1.2738,-1.2546,-1.2543,-1.2541,-1.2456,-1.2456,-1.2457,-1.2457,-1.2249,-1.2242,-1.2234,0,0,0,0,0,0,0,0,0,0,0,0,0,-1.2883,-1.3032,-1.2744,-1.2673,-1.2665,-1.2547,-1.2543,-1.254,-1.2456,-1.2456,-1.2457,-1.2457,-1.2251,-1.2242,-1.2233,-1.2168,0,0,-1.2206,-1.2202,0,0,0,0,0,0,0,0,-1.2891,-1.2872,-1.2686,-1.2678,-1.2668,-1.2526,-1.257,-1.2415,-1.2456,-1.2535,-1.2457,-1.2458,-1.2339,-1.2323,-1.2284,-1.2159,-1.215,-1.2206,-1.22,-1.2196,-1.2194,0,0,0,0,0,0,0,-1.2902,-1.288,-1.2665,-1.2683,-1.2673,-1.2648,-1.2627,-1.254,-1.2436,-1.2528,-1.2521,-1.25,-1.2334,-1.2293,-1.2279,-1.2146,-1.2206,-1.2198,-1.2192,-1.2189,-1.1955,-1.1954,0,0,0,0,0,0,-1.2926,-1.2889,-1.2671,-1.2659,-1.2784,-1.2643,-1.2619,-1.2571,-1.2437,-1.2417,-1.2499,-1.2496,-1.2308,-1.2289,-1.2271,-1.2184,-1.2196,-1.2188,-1.2183,-1.1956,-1.1955,-1.1954,0,0,0,0,0,0,-1.2933,-1.2907,-1.2679,-1.2772,-1.2741,-1.2637,-1.2585,-1.2567,-1.2526,-1.2415,-1.2395,-1.2477,-1.2308,-1.2283,-1.2195,-1.2176,-1.2184,-1.2176,-1.1957,-1.1956,-1.1954,-1.2013,0,0,0,0,0,0,-1.2942,-1.291,-1.2887,-1.2773,-1.2737,-1.2609,-1.2583,-1.2563,-1.2512,-1.2506,-1.2389,-1.237,-1.2306,-1.2208,-1.2186,-1.2164,-1.2169,-1.1958,-1.1956,-1.1955,-1.2012,-1.2013,-1.2015,0,0,0,0,0,-1.2952,-1.2909,-1.2886,-1.286,-1.2706,-1.2608,-1.2587,-1.2517,-1.2511,-1.2485,-1.2413,-1.2374,-1.2182,-1.22,-1.2174,-1.2149,-1.1959,-1.1957,-1.1955,-1.2011,-1.2013,-1.2015,0,0,0,0,0,0,-1.3021,-1.2893,-1.2866,-1.2785,-1.2709,-1.2594,-1.2559,-1.2521,-1.2443,-1.244,-1.2353,-1.2327,-1.2246,-1.2188,-1.2211,-1.2078,-1.2067,-1.206,-1.2119,-1.212,-1.2121,-1.2136,-1.2162,0,0,0,0,0,-1.3028,-1.2962,-1.2853,-1.2792,-1.2755,-1.2664,-1.2619,-1.2571,-1.2487,-1.2454,-1.2376,-1.2293,-1.2214,-1.2164,-1.2085,-1.2003,-1.1975,-1.1973,-1.1975,-1.1977,-1.1971,-1.1921,-1.1918,-1.1947,-1.1947,-1.1948,0,0,-1.3039,-1.2961,-1.2924,-1.2804,-1.2739,-1.267,-1.2637,-1.2566,-1.2513,-1.2442,-1.2354,-1.2294,-1.2196,-1.211,-1.2069,-1.206,-1.1957,-1.1974,-1.1976,-1.1969,-1.1919,-1.1916,-1.1914,-1.1946,-1.1946,-1.1947,0,0,-1.3025,-1.296,-1.2902,-1.2838,-1.2741,-1.2681,-1.2667,-1.2558,-1.2516,-1.2427,-1.2371,-1.2306,-1.2172,-1.2104,-1.2052,-1.2012,-1.1972,-1.1988,-1.1995,-1.1948,-1.1946,-1.1943,-1.1927,-1.1923,-1.1983,-1.1983,-1.1983,0,-1.305,-1.2948,-1.2876,-1.2808,-1.2756,-1.2691,-1.2629,-1.257,-1.2451,-1.2415,-1.2408,-1.2238,-1.2167,-1.2064,-1.2054,-1.2015,-1.1994,-1.2001,-1.1953,-1.1949,-1.1946,-1.1929,-1.1924,-1.1986,-1.1986,-1.1985,-1.1985,0,-1.2983,-1.2912,-1.2876,-1.2766,-1.271,-1.2645,-1.2562,-1.2512,-1.2469,-1.2409,-1.2318,-1.2231,-1.2133,-1.2105,-1.2061,-1.1995,-1.1992,-1.197,-1.1957,-1.1947,-1.193,-1.1923,-1.199,-1.1989,-1.1988,-1.1987,0,0,-1.3006,-1.2858,-1.2846,-1.2794,-1.2682,-1.2625,-1.2556,-1.2463,-1.2421,-1.2341,-1.228,-1.2168,-1.2147,-1.2088,-1.2036,-1.1995,-1.1966,-1.1977,-1.1973,-1.1977,-1.1885,-1.1901,-1.1895,-1.194,-1.1938,-1.1937,-1.1892,0,-1.2975,-1.2854,-1.2787,-1.2691,-1.2624,-1.2561,-1.25,-1.2424,-1.2365,-1.2297,-1.2231,-1.2153,-1.2131,-1.2095,-1.2052,-1.1979,-1.1946,-1.1981,-1.1878,-1.1876,-1.1904,-1.1887,-1.1904,-1.1866,-1.1885,-1.1884,-1.1883,0,-1.2923,-1.2847,-1.2746,-1.2641,-1.261,-1.2558,-1.2466,-1.2403,-1.2313,-1.2273,-1.2208,-1.2156,-1.2078,-1.2073,-1.1963,-1.1988,-1.1942,-1.19,-1.1896,-1.1883,-1.1878,-1.1871,-1.1852,-1.1846,-1.1872,-1.1873,-1.1874,0,-1.2949,-1.282,-1.2743,-1.2701,-1.2577,-1.2541,-1.2487,-1.2399,-1.2346,-1.2265,-1.223,-1.214,-1.209,-1.202,-1.1945,-1.1948,-1.1842,-1.183,-1.1803,-1.1805,-1.1783,-1.1785,-1.1755,-1.1756,-1.1756,-1.1756,-1.1756,0,-1.2921,-1.2861,-1.2752,-1.2705,-1.2635,-1.2558,-1.2489,-1.243,-1.2352,-1.2289,-1.2228,-1.2169,-1.2074,-1.2003,-1.1943,-1.186,-1.1838,-1.1801,-1.1786,-1.1806,-1.1811,-1.1773,-1.1773,-1.1755,-1.1755,-1.1755,-1.1756,0,-1.2937,-1.2862,-1.2773,-1.2664,-1.2635,-1.2588,-1.2492,-1.2442,-1.238,-1.2301,-1.2278,-1.2181,-1.2094,-1.2012,-1.1896,-1.1855,-1.1771,-1.1752,-1.1802,-1.1793,-1.1771,-1.1774,-1.1715,-1.1702,-1.1714,-1.1714,-1.1714,0,-1.2924,-1.2876,-1.2762,-1.2717,-1.2665,-1.2593,-1.254,-1.2461,-1.2408,-1.2302,-1.2264,-1.2173,-1.2096,-1.196,-1.1876,-1.1786,-1.1763,-1.1749,-1.1749,-1.177,-1.176,-1.1764,-1.1757,-1.175,-1.175,-1.175,-1.1751,0,-1.2907,-1.2872,-1.28,-1.2714,-1.2653,-1.2581,-1.2506,-1.2472,-1.2378,-1.2321,-1.2233,-1.2174,-1.2055,-1.1965,-1.1865,-1.1806,-1.1761,-1.1752,-1.174,-1.1759,-1.179,-1.1771,-1.1804,-1.1753,-1.1753,-1.1752,-1.1752,-1.1752,-1.2906,-1.2861,-1.2774,-1.2694,-1.263,-1.2562,-1.2509,-1.2442,-1.2368,-1.2267,-1.2225,-1.2135,-1.2044,-1.1906,-1.1847,-1.1774,-1.1763,-1.1748,-1.1743,-1.174,-1.1744,-1.1804,-1.1755,-1.1755,-1.1755,-1.1755,-1.1754,0,-1.2885,-1.2826,-1.2754,-1.2653,-1.259,-1.2557,-1.2472,-1.2421,-1.2343,-1.2264,-1.219,-1.2088,-1.1999,-1.191,-1.1816,-1.1774,-1.1751,-1.1751,-1.1753,-1.1739,-1.1759,-1.1777,-1.1771,-1.1771,-1.1771,-1.1771,-1.1771,-1.1772,-1.2867,-1.2788,-1.2743,-1.263,-1.257,-1.2484,-1.2439,-1.2374,-1.231,-1.22,-1.2127,-1.207,-1.1985,-1.1885,-1.1801,-1.1776,-1.1744,-1.175,-1.1719,-1.1739,-1.1738,-1.1737,-1.1754,-1.1744,-1.1744,-1.1705,-1.1705,-1.1705]}]]